Time,TemperatureF,DewpointF,PressureIn,WindDirection,WindDirectionDegrees,WindSpeedMPH,WindSpeedGustMPH,Humidity,HourlyPrecipIn,Conditions,Clouds,dailyrainin,SolarRadiationWatts/m^2,SoftwareType,DateUTC
2013-02-26 00:04:00,35.1,27.6,29.90,ENE,61,3.0,5.0,74,0.00,BKN,SCT,0.00,0.0,WeatherDisplay:10.37,2013-02-26 05:04:00,
2013-02-26 00:14:00,34.9,27.4,29.90,ENE,74,3.0,6.0,74,0.00,BKN,SCT,0.00,0.0,WeatherDisplay:10.37,2013-02-26 05:14:00,
2013-02-26 00:19:00,34.9,27.4,29.90,East,82,0.0,3.0,74,0.00,BKN,SCT,0.00,0.0,WeatherDisplay:10.37,2013-02-26 05:19:00,
2013-02-26 00:29:00,34.7,27.3,29.90,East,94,1.0,5.0,74,0.00,BKN,SCT,0.00,0.0,WeatherDisplay:10.37,2013-02-26 05:29:00,
2013-02-26 00:34:00,34.7,27.3,29.90,East,90,0.0,6.0,74,0.00,BKN,SCT,0.00,0.0,WeatherDisplay:10.37,2013-02-26 05:34:00,
2013-02-26 00:39:00,34.7,27.3,29.90,East,88,1.0,7.0,74,0.00,BKN,SCT,0.00,0.0,WeatherDisplay:10.37,2013-02-26 05:39:00,
2013-02-26 00:44:00,34.7,27.3,29.90,East,81,0.0,7.0,74,0.00,BKN,SCT,0.00,0.0,WeatherDisplay:10.37,2013-02-26 05:44:00,
2013-02-26 00:49:00,34.7,27.3,29.90,ENE,72,1.0,4.0,74,0.00,BKN,SCT,0.00,0.0,WeatherDisplay:10.37,2013-02-26 05:49:00,
2013-02-26 00:59:00,34.7,27.3,29.89,NE,56,0.0,4.0,74,0.00,BKN,SCT,0.00,0.0,WeatherDisplay:10.37,2013-02-26 05:59:00,
2013-02-26 01:04:00,34.8,27.1,29.89,ENE,69,2.0,6.0,73,0.00,BKN,SCT,0.00,0.0,WeatherDisplay:10.37,2013-02-26 06:04:00,
2013-02-26 01:09:00,34.9,27.1,29.89,ENE,61,1.0,3.0,73,0.00,BKN,SCT,0.00,0.0,WeatherDisplay:10.37,2013-02-26 06:09:00,
2013-02-26 01:14:00,34.9,27.1,29.88,NE,48,0.0,2.0,73,0.00,BKN,SCT,0.00,0.0,WeatherDisplay:10.37,2013-02-26 06:14:00,
2013-02-26 01:24:00,34.6,27.1,29.88,NE,51,3.0,5.0,74,0.00,OVC,SCT,0.00,0.0,WeatherDisplay:10.37,2013-02-26 06:24:00,
2013-02-26 01:29:00,34.5,27.1,29.86,NE,55,1.0,6.0,74,0.00,OVC,SCT,0.00,0.0,WeatherDisplay:10.37,2013-02-26 06:29:00,
2013-02-26 01:34:00,34.3,26.9,29.85,ENE,58,3.0,7.0,74,0.00,OVC,SCT,0.00,0.0,WeatherDisplay:10.37,2013-02-26 06:34:00,
2013-02-26 01:39:00,34.3,27.2,29.86,ENE,68,2.0,8.0,75,0.00,OVC,SCT,0.00,0.0,WeatherDisplay:10.37,2013-02-26 06:39:00,
2013-02-26 01:49:00,34.4,27.3,29.86,ENE,58,1.0,8.0,75,0.00,OVC,SCT,0.00,0.0,WeatherDisplay:10.37,2013-02-26 06:49:00,
2013-02-26 01:59:00,34.3,27.2,29.85,NE,54,5.0,8.0,75,0.00,OVC,SCT,0.00,0.0,WeatherDisplay:10.37,2013-02-26 06:59:00,
2013-02-26 02:04:00,34.3,27.2,29.85,NE,51,2.0,8.0,75,0.00,OVC,SCT,0.00,0.0,WeatherDisplay:10.37,2013-02-26 07:04:00,
2013-02-26 02:14:00,34.5,27.4,29.84,NE,49,7.0,9.0,75,0.00,OVC,SCT,0.00,0.0,WeatherDisplay:10.37,2013-02-26 07:14:00,
2013-02-26 02:19:00,34.6,27.5,29.83,NE,54,3.0,7.0,75,0.00,OVC,SCT,0.00,0.0,WeatherDisplay:10.37,2013-02-26 07:19:00,
2013-02-26 02:29:00,34.7,27.3,29.81,NE,49,2.0,10.0,74,0.00,OVC,SCT,0.00,0.0,WeatherDisplay:10.37,2013-02-26 07:29:00,
2013-02-26 02:34:00,34.7,27.3,29.81,NE,54,5.0,11.0,74,0.00,OVC,SCT,0.00,0.0,WeatherDisplay:10.37,2013-02-26 07:34:00,
2013-02-26 02:39:00,34.8,27.4,29.81,NE,53,5.0,10.0,74,0.00,OVC,SCT,0.00,0.0,WeatherDisplay:10.37,2013-02-26 07:39:00,
2013-02-26 02:49:00,34.7,27.3,29.81,ENE,61,5.0,9.0,74,0.00,OVC,SCT,0.00,0.0,WeatherDisplay:10.37,2013-02-26 07:49:00,
2013-02-26 02:59:00,34.9,27.1,29.80,ENE,69,6.0,9.0,73,0.00,OVC,SCT,0.00,0.0,WeatherDisplay:10.37,2013-02-26 07:59:00,
2013-02-26 03:09:00,34.9,27.1,29.79,ENE,66,5.0,12.0,73,0.00,OVC,SCT,0.00,0.0,WeatherDisplay:10.37,2013-02-26 08:09:00,
2013-02-26 03:14:00,34.9,27.1,29.80,ENE,63,5.0,12.0,73,0.00,OVC,SCT,0.00,0.0,WeatherDisplay:10.37,2013-02-26 08:14:00,
2013-02-26 03:24:00,34.9,27.1,29.78,ENE,63,5.0,13.0,73,0.00,BKN,SCT,0.00,0.0,WeatherDisplay:10.37,2013-02-26 08:24:00,
2013-02-26 03:29:00,35.0,27.2,29.78,ENE,64,2.0,8.0,73,0.00,BKN,SCT,0.00,0.0,WeatherDisplay:10.37,2013-02-26 08:29:00,
2013-02-26 03:34:00,34.9,27.1,29.77,ENE,67,6.0,12.0,73,0.00,BKN,SCT,0.00,0.0,WeatherDisplay:10.37,2013-02-26 08:34:00,
2013-02-26 03:44:00,34.9,27.1,29.76,ENE,60,2.0,9.0,73,0.00,BKN,SCT,0.00,0.0,WeatherDisplay:10.37,2013-02-26 08:44:00,
2013-02-26 03:54:00,34.9,27.1,29.77,ENE,75,2.0,10.0,73,0.00,BKN,SCT,0.00,0.0,WeatherDisplay:10.37,2013-02-26 08:54:00,
2013-02-26 03:59:00,34.9,27.1,29.76,ENE,75,5.0,12.0,73,0.00,BKN,SCT,0.00,0.0,WeatherDisplay:10.37,2013-02-26 08:59:00,
2013-02-26 04:04:00,34.9,27.1,29.75,East,81,5.0,9.0,73,0.00,BKN,SCT,0.00,0.0,WeatherDisplay:10.37,2013-02-26 09:04:00,
2013-02-26 04:09:00,34.9,27.1,29.75,ENE,72,6.0,13.0,73,0.00,BKN,SCT,0.00,0.0,WeatherDisplay:10.37,2013-02-26 09:09:00,
2013-02-26 04:14:00,34.9,27.1,29.75,ENE,67,7.0,13.0,73,0.00,BKN,SCT,0.00,0.0,WeatherDisplay:10.37,2013-02-26 09:14:00,
2013-02-26 04:24:00,34.9,27.1,29.73,ENE,67,8.0,13.0,73,0.00,OVC,SCT,0.00,0.0,WeatherDisplay:10.37,2013-02-26 09:24:00,
2013-02-26 04:29:00,34.9,26.8,29.73,ENE,72,6.0,7.0,72,0.00,OVC,SCT,0.00,0.0,WeatherDisplay:10.37,2013-02-26 09:29:00,
2013-02-26 04:34:00,34.9,27.1,29.73,ENE,76,5.0,13.0,73,0.00,OVC,SCT,0.00,0.0,WeatherDisplay:10.37,2013-02-26 09:34:00,
2013-02-26 04:39:00,34.9,26.8,29.71,ENE,72,12.0,15.0,72,0.00,OVC,SCT,0.00,0.0,WeatherDisplay:10.37,2013-02-26 09:39:00,
2013-02-26 04:44:00,34.9,26.8,29.71,ENE,67,3.0,9.0,72,0.00,OVC,SCT,0.00,0.0,WeatherDisplay:10.37,2013-02-26 09:44:00,
2013-02-26 04:49:00,34.9,26.8,29.70,ENE,61,5.0,12.0,72,0.00,OVC,SCT,0.00,0.0,WeatherDisplay:10.37,2013-02-26 09:49:00,
2013-02-26 04:54:00,35.0,26.9,29.69,ENE,60,5.0,8.0,72,0.00,OVC,SCT,0.00,0.0,WeatherDisplay:10.37,2013-02-26 09:54:00,
2013-02-26 04:59:00,35.2,27.1,29.68,ENE,72,10.0,14.0,72,0.00,OVC,SCT,0.00,0.0,WeatherDisplay:10.37,2013-02-26 09:59:00,
2013-02-26 05:04:00,35.2,26.8,29.68,ENE,75,6.0,17.0,71,0.00,OVC,SCT,0.00,0.0,WeatherDisplay:10.37,2013-02-26 10:04:00,
2013-02-26 05:09:00,35.2,26.8,29.67,ENE,72,5.0,13.0,71,0.00,OVC,SCT,0.00,0.0,WeatherDisplay:10.37,2013-02-26 10:09:00,
2013-02-26 05:19:00,35.2,26.8,29.68,ENE,78,5.0,11.0,71,0.00,OVC,SCT,0.00,0.0,WeatherDisplay:10.37,2013-02-26 10:19:00,
2013-02-26 05:29:00,35.2,27.1,29.68,ENE,72,9.0,13.0,72,0.00,OVC,SCT,0.00,0.0,WeatherDisplay:10.37,2013-02-26 10:29:00,
2013-02-26 05:34:00,35.2,26.8,29.68,East,79,6.0,10.0,71,0.00,OVC,SCT,0.00,0.0,WeatherDisplay:10.37,2013-02-26 10:34:00,
2013-02-26 05:44:00,35.2,27.1,29.69,East,96,3.0,10.0,72,0.00,OVC,SCT,0.00,0.0,WeatherDisplay:10.37,2013-02-26 10:44:00,
2013-02-26 05:49:00,35.2,27.1,29.69,East,101,2.0,10.0,72,0.00,OVC,SCT,0.00,0.0,WeatherDisplay:10.37,2013-02-26 10:49:00,
2013-02-26 05:54:00,35.2,27.4,29.70,ENE,75,2.0,9.0,73,0.00,OVC,SCT,0.00,0.0,WeatherDisplay:10.37,2013-02-26 10:54:00,
2013-02-26 05:59:00,34.9,27.1,29.70,ENE,63,6.0,12.0,73,0.00,OVC,SCT,0.00,0.0,WeatherDisplay:10.37,2013-02-26 10:59:00,
2013-02-26 06:09:00,34.9,27.1,29.71,ESE,112,6.0,6.0,73,0.00,OVC,SCT,0.00,0.0,WeatherDisplay:10.37,2013-02-26 11:09:00,
2013-02-26 06:14:00,34.9,27.4,29.72,East,94,3.0,7.0,74,0.00,OVC,SCT,0.00,0.0,WeatherDisplay:10.37,2013-02-26 11:14:00,
2013-02-26 06:19:00,34.7,27.6,29.71,ENE,66,3.0,10.0,75,0.00,-RA,SCT,0.00,0.0,WeatherDisplay:10.37,2013-02-26 11:19:00,
2013-02-26 06:29:00,34.3,27.6,29.71,ENE,63,0.0,4.0,76,0.02,-RA,SCT,0.02,0.0,WeatherDisplay:10.37,2013-02-26 11:29:00,
2013-02-26 06:34:00,34.3,27.9,29.70,NE,56,5.0,8.0,77,0.02,-RA,SCT,0.02,0.0,WeatherDisplay:10.37,2013-02-26 11:34:00,
2013-02-26 06:39:00,34.3,27.9,29.71,ENE,57,3.0,8.0,77,0.02,-RA,SCT,0.02,0.0,WeatherDisplay:10.37,2013-02-26 11:39:00,
2013-02-26 06:44:00,34.0,27.8,29.70,ENE,59,0.0,9.0,78,0.04,-RA,SCT,0.04,0.0,WeatherDisplay:10.37,2013-02-26 11:44:00,
2013-02-26 06:49:00,33.9,28.0,29.69,NE,51,5.0,12.0,79,0.04,-RA,SCT,0.04,0.0,WeatherDisplay:10.37,2013-02-26 11:49:00,
2013-02-26 06:54:00,33.6,28.1,29.70,ENE,63,6.0,14.0,80,0.04,-RA,SCT,0.04,0.0,WeatherDisplay:10.37,2013-02-26 11:54:00,
2013-02-26 06:59:00,33.6,28.1,29.69,ENE,64,6.0,8.0,80,0.06,-RA,SCT,0.06,0.0,WeatherDisplay:10.37,2013-02-26 11:59:00,
2013-02-26 07:09:00,33.4,28.2,29.69,NE,53,1.0,8.0,81,0.08,-RA,SCT,0.08,0.0,WeatherDisplay:10.37,2013-02-26 12:09:00,
2013-02-26 07:19:00,33.3,28.4,29.69,ENE,57,5.0,6.0,82,0.10,RA,SCT,0.10,0.0,WeatherDisplay:10.37,2013-02-26 12:19:00,
2013-02-26 07:29:00,33.1,28.2,29.68,ENE,64,1.0,9.0,82,0.10,RA,SCT,0.12,0.0,WeatherDisplay:10.37,2013-02-26 12:29:00,
2013-02-26 07:34:00,33.1,28.5,29.67,NE,54,0.0,9.0,83,0.10,RA,SCT,0.12,0.0,WeatherDisplay:10.37,2013-02-26 12:34:00,
2013-02-26 07:39:00,32.9,28.6,29.67,NE,44,0.0,0.0,84,0.10,OVC,SCT,0.12,0.0,WeatherDisplay:10.37,2013-02-26 12:39:00,
2013-02-26 07:44:00,32.9,28.6,29.67,NE,53,0.0,0.0,84,0.08,OVC,SCT,0.12,0.0,WeatherDisplay:10.37,2013-02-26 12:44:00,
2013-02-26 07:54:00,32.9,28.6,29.64,NE,52,0.0,0.0,84,0.10,RA,SCT,0.14,0.0,WeatherDisplay:10.37,2013-02-26 12:54:00,
2013-02-26 07:59:00,32.7,28.7,29.63,ENE,74,0.0,0.0,85,0.08,OVC,SCT,0.14,0.0,WeatherDisplay:10.37,2013-02-26 12:59:00,
2013-02-26 08:04:00,32.9,28.9,29.62,ENE,63,0.0,0.0,85,0.08,RA,SCT,0.16,0.0,WeatherDisplay:10.37,2013-02-26 13:04:00,
2013-02-26 08:14:00,32.9,29.2,29.62,NE,53,0.0,0.0,86,0.08,OVC,SCT,0.16,0.0,WeatherDisplay:10.37,2013-02-26 13:14:00,
2013-02-26 08:19:00,32.9,29.2,29.62,ENE,70,0.0,0.0,86,0.06,OVC,SCT,0.16,0.0,WeatherDisplay:10.37,2013-02-26 13:19:00,
2013-02-26 08:24:00,32.9,29.2,29.62,East,79,0.0,0.0,86,0.06,OVC,SCT,0.16,0.0,WeatherDisplay:10.37,2013-02-26 13:24:00,
2013-02-26 08:29:00,32.9,29.2,29.62,ENE,73,0.0,0.0,86,0.04,OVC,SCT,0.16,0.0,WeatherDisplay:10.37,2013-02-26 13:29:00,
2013-02-26 08:39:00,32.9,29.2,29.60,NE,56,0.0,0.0,86,0.06,RA,SCT,0.18,0.0,WeatherDisplay:10.37,2013-02-26 13:39:00,
2013-02-26 08:49:00,32.9,29.5,29.59,East,79,0.0,0.0,87,0.04,-RA,SCT,0.18,0.0,WeatherDisplay:10.37,2013-02-26 13:49:00,
2013-02-26 08:59:00,33.1,29.6,29.59,ENE,65,0.0,0.0,87,0.04,-RA,SCT,0.18,0.0,WeatherDisplay:10.37,2013-02-26 13:59:00,
2013-02-26 09:09:00,33.1,29.6,29.57,ENE,59,0.0,0.0,87,0.02,-RA,SCT,0.18,0.0,WeatherDisplay:10.37,2013-02-26 14:09:00,
2013-02-26 09:14:00,33.2,29.7,29.57,ENE,57,0.0,0.0,87,0.02,-RA,SCT,0.18,0.0,WeatherDisplay:10.37,2013-02-26 14:14:00,
2013-02-26 09:19:00,33.1,29.6,29.56,ENE,65,0.0,0.0,87,0.02,-RA,SCT,0.18,0.0,WeatherDisplay:10.37,2013-02-26 14:19:00,
2013-02-26 09:29:00,33.3,29.8,29.55,ENE,67,0.0,0.0,87,0.02,-RA,SCT,0.18,0.0,WeatherDisplay:10.37,2013-02-26 14:29:00,
2013-02-26 09:39:00,33.6,30.2,29.54,ENE,76,0.0,0.0,87,0.00,-RA,SCT,0.18,0.0,WeatherDisplay:10.37,2013-02-26 14:39:00,
2013-02-26 09:49:00,33.6,30.2,29.54,East,83,0.0,0.0,87,0.00, +RA,SCT,0.18,0.0,WeatherDisplay:10.37,2013-02-26 14:49:00,
2013-02-26 09:59:00,33.8,30.3,29.58,ENE,76,0.0,0.0,87,0.00, +RA,SCT,0.18,0.0,WeatherDisplay:10.37,2013-02-26 14:59:00,
2013-02-26 10:04:00,33.7,30.3,29.57,East,89,0.0,0.0,87,0.02, +RA,SCT,0.20,0.0,WeatherDisplay:10.37,2013-02-26 15:04:00,
2013-02-26 10:09:00,33.7,30.3,29.57,ENE,78,0.0,0.0,87,0.04, +RA,SCT,0.22,0.0,WeatherDisplay:10.37,2013-02-26 15:09:00,
2013-02-26 10:14:00,33.7,30.2,29.57,NE,55,0.0,0.0,87,0.04, +RA,SCT,0.22,0.0,WeatherDisplay:10.37,2013-02-26 15:14:00,
2013-02-26 10:19:00,33.7,30.3,29.57,NE,51,0.0,0.0,87,0.04,OVC,SCT,0.22,0.0,WeatherDisplay:10.37,2013-02-26 15:19:00,
2013-02-26 10:29:00,33.8,30.3,29.57,ENE,70,0.0,0.0,87,0.08,RA,SCT,0.26,0.0,WeatherDisplay:10.37,2013-02-26 15:29:00,
2013-02-26 10:39:00,33.8,30.3,29.57,East,101,0.0,0.0,87,0.10,RA,SCT,0.28,0.0,WeatherDisplay:10.37,2013-02-26 15:39:00,
2013-02-26 10:44:00,34.0,30.5,29.56,ENE,75,0.0,0.0,87,0.14,RA,SCT,0.32,0.0,WeatherDisplay:10.37,2013-02-26 15:44:00,
2013-02-26 10:49:00,34.2,30.7,29.56,ENE,61,0.0,0.0,87,0.16,RA,SCT,0.34,0.0,WeatherDisplay:10.37,2013-02-26 15:49:00,
2013-02-26 11:04:00,34.3,31.1,29.56,ENE,68,0.0,0.0,88,0.18,RA,SCT,0.38,0.0,WeatherDisplay:10.37,2013-02-26 16:04:00,
2013-02-26 11:09:00,34.3,31.2,29.56,ENE,66,0.0,0.0,88,0.18,RA,SCT,0.41,0.0,WeatherDisplay:10.37,2013-02-26 16:09:00,
2013-02-26 11:19:00,34.3,31.2,29.54,ENE,71,0.0,3.0,88,0.20,RA,SCT,0.43,0.0,WeatherDisplay:10.37,2013-02-26 16:19:00,
2013-02-26 11:24:00,34.3,31.2,29.54,ENE,58,1.0,4.0,88,0.20,RA,SCT,0.45,0.0,WeatherDisplay:10.37,2013-02-26 16:24:00,
2013-02-26 11:34:00,34.7,31.8,29.54,ENE,60,3.0,9.0,89,0.16,OVC,SCT,0.45,0.0,WeatherDisplay:10.37,2013-02-26 16:34:00,
2013-02-26 11:39:00,34.9,32.0,29.54,ENE,61,0.0,0.0,89,0.16,OVC,SCT,0.45,0.0,WeatherDisplay:10.37,2013-02-26 16:39:00,
2013-02-26 11:49:00,34.9,32.0,29.52,ENE,67,0.0,2.0,89,0.10,-RA,SCT,0.45,0.0,WeatherDisplay:10.37,2013-02-26 16:49:00,
2013-02-26 11:59:00,35.2,32.3,29.52,ENE,70,3.0,10.0,89,0.08,-RA,SCT,0.45,0.0,WeatherDisplay:10.37,2013-02-26 16:59:00,
2013-02-26 12:04:00,35.2,32.3,29.52,NE,56,0.0,9.0,89,0.06,-RA,SCT,0.45,0.0,WeatherDisplay:10.37,2013-02-26 17:04:00,
2013-02-26 12:09:00,35.2,32.3,29.51,ENE,67,2.0,9.0,89,0.04,-RA,SCT,0.45,0.0,WeatherDisplay:10.37,2013-02-26 17:09:00,
2013-02-26 12:14:00,35.4,32.5,29.51,ENE,75,1.0,6.0,89,0.02,-RA,SCT,0.45,0.0,WeatherDisplay:10.37,2013-02-26 17:14:00,
2013-02-26 12:19:00,35.4,32.5,29.51,East,85,1.0,6.0,89,0.02,-DZ,SCT,0.45,0.0,WeatherDisplay:10.37,2013-02-26 17:19:00,
2013-02-26 12:29:00,35.4,32.8,29.50,East,81,5.0,6.0,90,0.00,-DZ,SCT,0.45,0.0,WeatherDisplay:10.37,2013-02-26 17:29:00,
2013-02-26 12:34:00,35.5,32.8,29.50,ENE,72,2.0,7.0,90,0.00,-DZ,SCT,0.45,0.0,WeatherDisplay:10.37,2013-02-26 17:34:00,
2013-02-26 12:39:00,35.6,33.0,29.49,ENE,71,2.0,14.0,90,0.00,-DZ,SCT,0.45,0.0,WeatherDisplay:10.37,2013-02-26 17:39:00,
2013-02-26 12:44:00,35.8,33.1,29.49,East,79,2.0,6.0,90,0.00,-DZ,SCT,0.45,0.0,WeatherDisplay:10.37,2013-02-26 17:44:00,
2013-02-26 12:49:00,36.0,33.3,29.49,East,92,5.0,7.0,90,0.02,-DZ,SCT,0.47,0.0,WeatherDisplay:10.37,2013-02-26 17:49:00,
2013-02-26 12:54:00,36.1,33.5,29.49,East,87,3.0,7.0,90,0.02,-DZ,SCT,0.47,0.0,WeatherDisplay:10.37,2013-02-26 17:54:00,
2013-02-26 12:59:00,36.1,33.5,29.48,ENE,73,1.0,5.0,90,0.02,-DZ,SCT,0.47,0.0,WeatherDisplay:10.37,2013-02-26 17:59:00,
2013-02-26 13:09:00,36.3,33.7,29.47,ENE,68,3.0,29.0,90,0.02,-DZ,SCT,0.47,0.0,WeatherDisplay:10.37,2013-02-26 18:09:00,
2013-02-26 13:19:00,36.7,34.0,29.46,East,81,3.0,29.0,90,0.02,-DZ,SCT,0.47,0.0,WeatherDisplay:10.37,2013-02-26 18:19:00,
2013-02-26 13:24:00,37.0,34.4,29.46,East,80,0.0,2.0,90,0.02,-DZ,SCT,0.47,0.0,WeatherDisplay:10.37,2013-02-26 18:24:00,
2013-02-26 13:29:00,37.0,34.4,29.46,East,86,0.0,2.0,90,0.02,-DZ,SCT,0.47,0.0,WeatherDisplay:10.37,2013-02-26 18:29:00,
2013-02-26 13:34:00,37.2,34.6,29.46,ENE,77,1.0,7.0,90,0.02,-DZ,SCT,0.47,0.0,WeatherDisplay:10.37,2013-02-26 18:34:00,
2013-02-26 13:44:00,37.4,34.7,29.44,NE,51,2.0,29.0,90,0.02,-DZ,SCT,0.47,0.0,WeatherDisplay:10.37,2013-02-26 18:44:00,
2013-02-26 13:49:00,37.4,34.8,29.44,ENE,73,1.0,3.0,90,0.00,-DZ,SCT,0.47,0.0,WeatherDisplay:10.37,2013-02-26 18:49:00,
2013-02-26 13:54:00,37.7,35.0,29.44,ENE,72,0.0,5.0,90,0.00,-DZ,SCT,0.47,0.0,WeatherDisplay:10.37,2013-02-26 18:54:00,
2013-02-26 13:59:00,37.9,35.3,29.44,ENE,77,2.0,7.0,90,0.00,-DZ,SCT,0.47,0.0,WeatherDisplay:10.37,2013-02-26 18:59:00,
2013-02-26 14:04:00,37.9,35.3,29.44,East,81,0.0,7.0,90,0.00,-DZ,SCT,0.47,0.0,WeatherDisplay:10.37,2013-02-26 19:04:00,
2013-02-26 14:09:00,38.0,35.3,29.44,ENE,63,1.0,6.0,90,0.00,-DZ,SCT,0.47,0.0,WeatherDisplay:10.37,2013-02-26 19:09:00,
2013-02-26 14:14:00,38.1,35.4,29.44,ENE,63,2.0,5.0,90,0.00,-DZ,SCT,0.47,0.0,WeatherDisplay:10.37,2013-02-26 19:14:00,
2013-02-26 14:19:00,38.3,35.6,29.43,ENE,74,1.0,5.0,90,0.00,-RA,SCT,0.47,0.0,WeatherDisplay:10.37,2013-02-26 19:19:00,
2013-02-26 14:24:00,38.3,35.6,29.43,ENE,63,0.0,1.0,90,0.00,-RA,SCT,0.47,0.0,WeatherDisplay:10.37,2013-02-26 19:24:00,
2013-02-26 14:34:00,38.5,35.8,29.43,ENE,66,0.0,0.0,90,0.00,-RA,SCT,0.47,0.0,WeatherDisplay:10.37,2013-02-26 19:34:00,
2013-02-26 14:39:00,38.5,35.8,29.43,ENE,61,0.0,0.0,90,0.00,-RA,SCT,0.47,0.0,WeatherDisplay:10.37,2013-02-26 19:39:00,
2013-02-26 14:49:00,38.8,36.2,29.43,NE,49,0.0,1.0,90,0.00,-RA,SCT,0.47,0.0,WeatherDisplay:10.37,2013-02-26 19:49:00,
2013-02-26 14:54:00,38.8,36.2,29.43,ENE,62,0.0,0.0,90,0.00,-RA,SCT,0.47,0.0,WeatherDisplay:10.37,2013-02-26 19:54:00,
2013-02-26 14:59:00,38.8,36.4,29.43,ENE,61,0.0,0.0,91,0.00,-RA,SCT,0.47,0.0,WeatherDisplay:10.37,2013-02-26 19:59:00,
2013-02-26 15:04:00,38.8,36.2,29.43,ENE,57,0.0,0.0,90,0.00,-RA,SCT,0.47,0.0,WeatherDisplay:10.37,2013-02-26 20:04:00,
2013-02-26 15:09:00,39.0,36.6,29.43,ENE,65,0.0,0.0,91,0.02,-RA,SCT,0.49,0.0,WeatherDisplay:10.37,2013-02-26 20:09:00,
2013-02-26 15:19:00,39.0,36.6,29.43,ENE,68,0.0,0.0,91,0.02,-DZ,SCT,0.49,0.0,WeatherDisplay:10.37,2013-02-26 20:19:00,
2013-02-26 15:24:00,39.0,36.6,29.43,NE,55,0.0,0.0,91,0.02,-DZ,SCT,0.49,0.0,WeatherDisplay:10.37,2013-02-26 20:24:00,
2013-02-26 15:29:00,39.4,37.0,29.43,NE,45,0.0,0.0,91,0.02,-DZ,SCT,0.49,0.0,WeatherDisplay:10.37,2013-02-26 20:29:00,
2013-02-26 15:39:00,39.4,37.0,29.43,NE,45,0.0,0.0,91,0.04,-DZ,SCT,0.51,0.0,WeatherDisplay:10.37,2013-02-26 20:39:00,
2013-02-26 15:44:00,39.4,37.0,29.43,NE,45,0.0,0.0,91,0.04,-DZ,SCT,0.51,0.0,WeatherDisplay:10.37,2013-02-26 20:44:00,
2013-02-26 15:49:00,39.4,37.0,29.43,NE,45,0.0,0.0,91,0.04,-DZ,SCT,0.51,0.0,WeatherDisplay:10.37,2013-02-26 20:49:00,
2013-02-26 15:54:00,39.4,37.0,29.43,NE,45,0.0,0.0,91,0.06,-DZ,SCT,0.53,0.0,WeatherDisplay:10.37,2013-02-26 20:54:00,
2013-02-26 15:59:00,39.4,37.0,29.43,NE,45,0.0,0.0,91,0.06,-DZ,SCT,0.53,0.0,WeatherDisplay:10.37,2013-02-26 20:59:00,
2013-02-26 16:04:00,39.6,37.2,29.43,NE,45,0.0,0.0,91,0.06,-RA,SCT,0.53,0.0,WeatherDisplay:10.37,2013-02-26 21:04:00,
2013-02-26 16:14:00,39.6,37.2,29.43,NNE,27,0.0,0.0,91,0.04,-RA,SCT,0.53,0.0,WeatherDisplay:10.37,2013-02-26 21:14:00,
2013-02-26 16:24:00,39.4,37.0,29.43,NE,39,0.0,0.0,91,0.06,-RA,SCT,0.55,0.0,WeatherDisplay:10.37,2013-02-26 21:24:00,
2013-02-26 16:29:00,39.6,37.2,29.43,NE,47,0.0,0.0,91,0.06,-RA,SCT,0.55,0.0,WeatherDisplay:10.37,2013-02-26 21:29:00,
2013-02-26 16:34:00,39.6,37.2,29.43,NE,47,0.0,0.0,91,0.06,-RA,SCT,0.55,0.0,WeatherDisplay:10.37,2013-02-26 21:34:00,
2013-02-26 16:39:00,39.5,37.1,29.43,NE,45,0.0,0.0,91,0.04,-RA,SCT,0.55,0.0,WeatherDisplay:10.37,2013-02-26 21:39:00,
2013-02-26 16:49:00,39.6,37.2,29.42,NE,47,0.0,0.0,91,0.04,-RA,SCT,0.55,0.0,WeatherDisplay:10.37,2013-02-26 21:49:00,
2013-02-26 16:59:00,39.6,37.2,29.43,ENE,61,0.0,0.0,91,0.04,-RA,SCT,0.57,0.0,WeatherDisplay:10.37,2013-02-26 21:59:00,
2013-02-26 17:04:00,39.4,37.0,29.43,ENE,64,0.0,0.0,91,0.04,-RA,SCT,0.57,0.0,WeatherDisplay:10.37,2013-02-26 22:04:00,
2013-02-26 17:09:00,39.4,37.0,29.42,ENE,70,0.0,0.0,91,0.04,-RA,SCT,0.57,0.0,WeatherDisplay:10.37,2013-02-26 22:09:00,
2013-02-26 17:19:00,39.6,37.2,29.44,ENE,71,0.0,0.0,91,0.04,-RA,SCT,0.57,0.0,WeatherDisplay:10.37,2013-02-26 22:19:00,
2013-02-26 17:29:00,39.4,37.0,29.44,East,85,0.0,0.0,91,0.02,-RA,SCT,0.57,0.0,WeatherDisplay:10.37,2013-02-26 22:29:00,
2013-02-26 17:34:00,39.6,37.2,29.44,ENE,75,0.0,0.0,91,0.04,-RA,SCT,0.59,0.0,WeatherDisplay:10.37,2013-02-26 22:34:00,
2013-02-26 17:44:00,39.6,37.2,29.44,NE,52,0.0,0.0,91,0.04,-RA,SCT,0.59,0.0,WeatherDisplay:10.37,2013-02-26 22:44:00,
2013-02-26 17:54:00,39.6,37.2,29.44,NE,51,0.0,0.0,91,0.02,OVC,SCT,0.59,0.0,WeatherDisplay:10.37,2013-02-26 22:54:00,
2013-02-26 17:59:00,39.4,37.0,29.44,ENE,63,0.0,0.0,91,0.02,OVC,SCT,0.59,0.0,WeatherDisplay:10.37,2013-02-26 22:59:00,
2013-02-26 18:04:00,39.4,37.0,29.45,ENE,58,0.0,0.0,91,0.02,OVC,SCT,0.59,0.0,WeatherDisplay:10.37,2013-02-26 23:04:00,
2013-02-26 18:09:00,39.4,37.0,29.45,NE,46,0.0,0.0,91,0.02,OVC,SCT,0.59,0.0,WeatherDisplay:10.37,2013-02-26 23:09:00,
2013-02-26 18:19:00,39.4,37.0,29.45,NE,45,0.0,0.0,91,0.02,-RA,SCT,0.59,0.0,WeatherDisplay:10.37,2013-02-26 23:19:00,
2013-02-26 18:24:00,39.4,37.0,29.45,NE,45,0.0,0.0,91,0.02,-RA,SCT,0.59,0.0,WeatherDisplay:10.37,2013-02-26 23:24:00,
2013-02-26 18:29:00,39.4,37.0,29.45,NE,45,0.0,0.0,91,0.02,-RA,SCT,0.59,0.0,WeatherDisplay:10.37,2013-02-26 23:29:00,
2013-02-26 18:39:00,39.4,37.0,29.45,NE,45,0.0,0.0,91,0.00,-RA,SCT,0.59,0.0,WeatherDisplay:10.37,2013-02-26 23:39:00,
2013-02-26 18:49:00,39.0,36.6,29.46,NE,45,0.0,0.0,91,0.00,-RA,SCT,0.59,0.0,WeatherDisplay:10.37,2013-02-26 23:49:00,
2013-02-26 18:54:00,39.0,36.6,29.46,NE,45,0.0,0.0,91,0.00,-RA,SCT,0.59,0.0,WeatherDisplay:10.37,2013-02-26 23:54:00,
2013-02-26 18:59:00,39.0,36.6,29.46,NE,45,0.0,0.0,91,0.00,-RA,SCT,0.59,0.0,WeatherDisplay:10.37,2013-02-26 23:59:00,
2013-02-26 19:04:00,39.0,36.6,29.46,NE,45,0.0,0.0,91,0.02,-RA,SCT,0.61,0.0,WeatherDisplay:10.37,2013-02-27 00:04:00,
2013-02-26 19:14:00,39.0,36.6,29.46,NE,45,0.0,0.0,91,0.02,-RA,SCT,0.61,0.0,WeatherDisplay:10.37,2013-02-27 00:14:00,
2013-02-26 19:24:00,39.0,36.6,29.46,NE,45,0.0,0.0,91,0.02,-RA,SCT,0.61,0.0,WeatherDisplay:10.37,2013-02-27 00:24:00,
2013-02-26 19:34:00,38.8,36.4,29.47,NE,45,0.0,0.0,91,0.04,-RA,SCT,0.63,0.0,WeatherDisplay:10.37,2013-02-27 00:34:00,
2013-02-26 19:39:00,38.8,36.4,29.47,NE,45,0.0,0.0,91,0.04,-RA,SCT,0.63,0.0,WeatherDisplay:10.37,2013-02-27 00:39:00,
2013-02-26 19:49:00,38.7,36.3,29.48,NE,45,0.0,0.0,91,0.04,-RA,SCT,0.63,0.0,WeatherDisplay:10.37,2013-02-27 00:49:00,
2013-02-26 19:59:00,38.5,36.1,29.48,NE,45,0.0,0.0,91,0.04,-RA,SCT,0.63,0.0,WeatherDisplay:10.37,2013-02-27 00:59:00,
2013-02-26 20:04:00,38.5,36.1,29.48,NE,45,0.0,0.0,91,0.02,-RA,SCT,0.63,0.0,WeatherDisplay:10.37,2013-02-27 01:04:00,
2013-02-26 20:09:00,38.5,36.1,29.48,NE,45,0.0,0.0,91,0.02,-RA,SCT,0.63,0.0,WeatherDisplay:10.37,2013-02-27 01:09:00,
2013-02-26 20:14:00,38.5,36.1,29.48,NE,45,0.0,0.0,91,0.04,-RA,SCT,0.65,0.0,WeatherDisplay:10.37,2013-02-27 01:14:00,
2013-02-26 20:24:00,38.7,36.3,29.48,NE,45,0.0,0.0,91,0.04,-RA,SCT,0.65,0.0,WeatherDisplay:10.37,2013-02-27 01:24:00,
2013-02-26 20:29:00,38.5,36.1,29.48,NE,45,0.0,0.0,91,0.02,-RA,SCT,0.65,0.0,WeatherDisplay:10.37,2013-02-27 01:29:00,
2013-02-26 20:39:00,38.5,36.1,29.48,SSE,154,0.0,0.0,91,0.04,-RA,SCT,0.67,0.0,WeatherDisplay:10.37,2013-02-27 01:39:00,
2013-02-26 20:44:00,38.8,36.4,29.48,South,191,0.0,0.0,91,0.04,-RA,SCT,0.67,0.0,WeatherDisplay:10.37,2013-02-27 01:44:00,
2013-02-26 20:49:00,38.8,36.4,29.48,SW,217,0.0,0.0,91,0.04,-RA,SCT,0.67,0.0,WeatherDisplay:10.37,2013-02-27 01:49:00,
2013-02-26 20:54:00,39.0,36.6,29.48,WSW,239,0.0,0.0,91,0.06,-RA,SCT,0.69,0.0,WeatherDisplay:10.37,2013-02-27 01:54:00,
2013-02-26 20:59:00,39.2,36.8,29.48,SW,217,0.0,0.0,91,0.06,-RA,SCT,0.69,0.0,WeatherDisplay:10.37,2013-02-27 01:59:00,
2013-02-26 21:04:00,39.4,37.0,29.48,SSW,196,0.0,0.0,91,0.06,-DZ,SCT,0.69,0.0,WeatherDisplay:10.37,2013-02-27 02:04:00,
2013-02-26 21:14:00,39.7,37.3,29.48,SW,218,0.0,0.0,91,0.04,-DZ,SCT,0.69,0.0,WeatherDisplay:10.37,2013-02-27 02:14:00,
2013-02-26 21:24:00,39.9,37.5,29.49,SSW,213,0.0,0.0,91,0.04,-DZ,SCT,0.69,0.0,WeatherDisplay:10.37,2013-02-27 02:24:00,
2013-02-26 21:29:00,39.9,37.5,29.49,SSW,210,0.0,0.0,91,0.04,-DZ,SCT,0.69,0.0,WeatherDisplay:10.37,2013-02-27 02:29:00,
2013-02-26 21:34:00,40.1,37.7,29.49,SSW,211,0.0,0.0,91,0.02,-DZ,SCT,0.69,0.0,WeatherDisplay:10.37,2013-02-27 02:34:00,
2013-02-26 21:39:00,40.3,37.9,29.49,SW,215,0.0,0.0,91,0.02,-DZ,SCT,0.69,0.0,WeatherDisplay:10.37,2013-02-27 02:39:00,
2013-02-26 21:49:00,40.3,37.9,29.49,SW,218,0.0,0.0,91,0.04,-DZ,SCT,0.71,0.0,WeatherDisplay:10.37,2013-02-27 02:49:00,
2013-02-26 21:54:00,40.3,37.9,29.49,SSW,210,0.0,0.0,91,0.02,-DZ,SCT,0.71,0.0,WeatherDisplay:10.37,2013-02-27 02:54:00,
2013-02-26 21:59:00,40.3,37.9,29.49,SW,220,1.0,5.0,91,0.02,-DZ,SCT,0.71,0.0,WeatherDisplay:10.37,2013-02-27 02:59:00,
2013-02-26 22:04:00,40.3,37.9,29.49,SW,231,0.0,0.0,91,0.02,-DZ,SCT,0.71,0.0,WeatherDisplay:10.37,2013-02-27 03:04:00,
2013-02-26 22:14:00,40.6,38.2,29.49,SW,234,0.0,0.0,91,0.02,-DZ,SCT,0.71,0.0,WeatherDisplay:10.37,2013-02-27 03:14:00,
2013-02-26 22:19:00,40.6,38.2,29.49,WSW,241,0.0,3.0,91,0.02,OVC,SCT,0.71,0.0,WeatherDisplay:10.37,2013-02-27 03:19:00,
2013-02-26 22:29:00,40.8,38.4,29.49,SW,228,0.0,3.0,91,0.02,OVC,SCT,0.71,0.0,WeatherDisplay:10.37,2013-02-27 03:29:00,
2013-02-26 22:39:00,40.8,38.7,29.49,SW,216,1.0,7.0,92,0.02,OVC,SCT,0.71,0.0,WeatherDisplay:10.37,2013-02-27 03:39:00,
2013-02-26 22:44:00,40.8,38.7,29.49,SSW,211,0.0,2.0,92,0.00,OVC,SCT,0.71,0.0,WeatherDisplay:10.37,2013-02-27 03:44:00,
2013-02-26 22:54:00,40.8,38.7,29.49,SW,222,0.0,2.0,92,0.00,OVC,SCT,0.71,0.0,WeatherDisplay:10.37,2013-02-27 03:54:00,
2013-02-26 22:59:00,40.8,38.7,29.49,SW,227,0.0,0.0,92,0.00,OVC,SCT,0.71,0.0,WeatherDisplay:10.37,2013-02-27 03:59:00,
2013-02-26 23:04:00,40.8,38.7,29.49,SW,220,0.0,5.0,92,0.00,-RA,SCT,0.71,0.0,WeatherDisplay:10.37,2013-02-27 04:04:00,
2013-02-26 23:09:00,41.0,38.9,29.49,SW,223,0.0,5.0,92,0.00,-RA,SCT,0.71,0.0,WeatherDisplay:10.37,2013-02-27 04:09:00,
2013-02-26 23:19:00,41.0,38.9,29.49,WSW,243,1.0,29.0,92,0.00,-RA,SCT,0.71,0.0,WeatherDisplay:10.37,2013-02-27 04:19:00,
2013-02-26 23:24:00,41.0,38.9,29.49,SW,235,0.0,9.0,92,0.00,-RA,SCT,0.71,0.0,WeatherDisplay:10.37,2013-02-27 04:24:00,
2013-02-26 23:34:00,41.0,38.9,29.50,SW,236,0.0,6.0,92,0.00,-RA,SCT,0.71,0.0,WeatherDisplay:10.37,2013-02-27 04:34:00,
2013-02-26 23:39:00,40.8,38.7,29.50,SW,217,1.0,6.0,92,0.00,-RA,SCT,0.71,0.0,WeatherDisplay:10.37,2013-02-27 04:39:00,
2013-02-26 23:44:00,40.8,38.7,29.50,SW,218,2.0,5.0,92,0.00,-RA,SCT,0.71,0.0,WeatherDisplay:10.37,2013-02-27 04:44:00,
2013-02-26 23:49:00,40.8,38.7,29.50,SW,223,0.0,12.0,92,0.00,-RA,SCT,0.71,0.0,WeatherDisplay:10.37,2013-02-27 04:49:00,
2013-02-26 23:59:00,40.8,38.7,29.50,SW,218,0.0,5.0,92,0.00,-RA,SCT,0.00,0.0,WeatherDisplay:10.37,2013-02-27 04:59:00,